This is the latest recevied weather packets stored in our database for station/object K2RMB. If no packets are shown the sender has not sent any weather packets the latest 10 day(s).
| Time | Temp. | Humidity | Pressure | Rain* | Wind** | Luminosity | Snow |
|---|---|---|---|---|---|---|---|
| 1777070013 | 12.22° C | 33% | 1012.1 hPa | 0 mm | - | 42 W/m² | - |
| 1777069713 | 12.22° C | 32% | 1012.1 hPa | 0 mm | - | 46 W/m² | - |
| 1777069408 | 12.22° C | 31% | 1012.1 hPa | 0 mm | - | 52 W/m² | - |
| 1777069106 | 12.22° C | 31% | 1012.5 hPa | 0 mm | - | 62 W/m² | - |
| 1777068801 | 12.22° C | 31% | 1012.1 hPa | 0 mm | - | 72 W/m² | - |
| 1777068497 | 12.22° C | 33% | 1012.1 hPa | 0 mm | - | 86 W/m² | - |
| 1777068195 | 12.22° C | 32% | 1012.1 hPa | 0 mm | - | 48 W/m² | - |
| 1777067891 | 12.78° C | 31% | 1011.8 hPa | 0 mm | - | 59 W/m² | - |
| 1777067590 | 12.78° C | 32% | 1011.8 hPa | 0 mm | - | 182 W/m² | - |
| 1777067289 | 12.78° C | 29% | 1012.1 hPa | 0 mm | - | 197 W/m² | - |
| 1777066985 | 12.78° C | 30% | 1011.8 hPa | 0 mm | - | 217 W/m² | - |
| 1777066680 | 12.78° C | 30% | 1011.8 hPa | 0 mm | - | 229 W/m² | - |
| 1777066376 | 12.78° C | 28% | 1011.8 hPa | 0 mm | - | 243 W/m² | - |
| 1777066071 | 12.78° C | 29% | 1012.1 hPa | 0 mm | - | 257 W/m² | - |
| 1777065765 | 12.78° C | 29% | 1011.8 hPa | 0 mm | - | 277 W/m² | - |
| 1777065461 | 12.78° C | 30% | 1011.8 hPa | 0 mm | - | 292 W/m² | - |
| 1777065156 | 12.78° C | 29% | 1011.8 hPa | 0 mm | - | 310 W/m² | - |
| 1777064854 | 12.78° C | 29% | 1011.5 hPa | 0 mm | - | 321 W/m² | - |
| 1777064550 | 12.78° C | 29% | 1011.5 hPa | 0 mm | - | 340 W/m² | - |
| 1777064247 | 12.78° C | 29% | 1011.5 hPa | 0 mm | - | 353 W/m² | - |
| 1777063942 | 12.22° C | 29% | 1011.5 hPa | 0 mm | - | 375 W/m² | - |
| 1777063641 | 12.78° C | 29% | 1011.5 hPa | 0 mm | - | 389 W/m² | - |
| 1777063337 | 12.22° C | 28% | 1011.5 hPa | 0 mm | - | 404 W/m² | - |
| 1777063034 | 12.22° C | 29% | 1011.1 hPa | 0 mm | - | 422 W/m² | - |
| 1777062732 | 12.78° C | 30% | 1011.5 hPa | 0 mm | - | 438 W/m² | - |
* Rain latest hour (hover to see other rain measurements)
** Current wind speed in m/s (hover to see current wind gust speed)